Change the Weather History Date:

Friday, February 21, 2014

  Actual Average Record
Temperature  
Mean Temperature 12 °F -  
Max Temperature 17 °F 29 °F 44 °F (2007)
Min Temperature 6 °F 15 °F -11 °F (2001)
Degree Days  
Heating Degree Days 54    
Moisture  
Dew Point 5 °F    
Average Humidity 75    
Maximum Humidity 86    
Minimum Humidity 67    
Precipitation  
Precipitation 0.00 in - - ()
Sea Level Pressure  
Sea Level Pressure 29.53 in    
Wind  
Wind Speed 18 mph (West)    
Max Wind Speed 26 mph    
Max Gust Speed 34 mph    
Visibility 6 miles    
Events Snow    
Averages and records for this station are not official NWS values.
T = Trace of Precipitation, MM = Missing Value Source: NWS Daily Summary

Daily Weather History Graph

Daily Weather History Graph

Search for Another Location

Airport or City:

Trip Planner

Search our weather history database for the weather conditions in past years. The results will help you decide how hot, cold, wet, or windy it might be!

Date:

Astronomy

Feb. 21, 2014 Rise Set
Actual Time 7:04 AM CST 5:50 PM CST
Civil Twilight 6:35 AM CST 6:20 PM CST
Nautical Twilight 6:01 AM CST 6:54 PM CST
Astronomical Twilight 5:27 AM CST 7:28 PM CST
Moon 12:00 AM CST 10:12 AM CST
Length of Visible Light 11h 45m
Length of Day
10h 45m
Waning Gibbous, 60% of the Moon is Illuminated
Feb 21
Waning Gibbous
Feb 22
Last Quarter
Mar 1
New
Mar 8
First Quarter
Mar 16
Full

Hourly Weather History & Observations

Time (CST) Temp. Windchill Dew Point Humidity Pressure Visibility Wind Dir Wind Speed Gust Speed Precip Events Conditions
12:04 AM 15.8 °F -0.2 °F 12.2 °F 86% 29.31 in 1.0 mi WNW 17.3 mph 24.2 mph 0.00 in Snow Light Snow
12:30 AM 15.8 °F -0.2 °F 10.4 °F 79% 29.32 in 1.5 mi WNW 17.3 mph 26.5 mph 0.00 in Snow Light Snow
12:53 AM 15.1 °F -1.6 °F 10.0 °F 80% 29.36 in 1.5 mi WNW 18.4 mph 29.9 mph 0.00 in Snow Light Snow
1:40 AM 14.0 °F -2.0 °F 8.6 °F 79% 29.33 in 2.0 mi WNW 16.1 mph 24.2 mph 0.00 in Snow Light Snow
1:48 AM 14.0 °F -2.5 °F 8.6 °F 79% 29.33 in 1.8 mi WNW 17.3 mph 27.6 mph 0.00 in Snow Light Snow
1:53 AM 14.0 °F -3.0 °F 9.0 °F 80% 29.37 in 2.0 mi West 18.4 mph 27.6 mph 0.00 in Snow Light Snow
2:18 AM 12.2 °F -5.3 °F 8.6 °F 85% 29.34 in 1.5 mi WNW 18.4 mph 28.8 mph 0.00 in Snow Light Snow
2:43 AM 12.2 °F -4.8 °F 8.6 °F 85% 29.35 in 1.0 mi West 17.3 mph 25.3 mph 0.00 in Snow Light Snow
2:53 AM 12.9 °F -7.3 °F 7.0 °F 77% 29.39 in 1.0 mi WNW 26.5 mph 34.5 mph 0.00 in Snow Light Snow
3:05 AM 12.2 °F -6.7 °F 8.6 °F 85% 29.36 in 1.2 mi WNW 21.9 mph 33.4 mph 0.00 in Snow Light Snow
3:50 AM 12.2 °F -6.7 °F 6.8 °F 79% 29.37 in 2.5 mi WNW 21.9 mph 33.4 mph 0.00 in Snow Light Snow
3:53 AM 10.9 °F -7.9 °F 6.1 °F 81% 29.41 in 3.0 mi West 20.7 mph 29.9 mph 0.00 in Snow Light Snow
4:17 AM 10.4 °F -7.7 °F 3.2 °F 73% 29.37 in 3.0 mi WNW 18.4 mph 34.5 mph 0.00 in   Overcast
4:53 AM 10.0 °F -8.1 °F 3.0 °F 73% 29.44 in 5.0 mi WNW 18.4 mph 34.5 mph 0.00 in   Overcast
5:53 AM 8.1 °F -9.0 °F 1.9 °F 76% 29.46 in 7.0 mi West 15.0 mph 27.6 mph 0.00 in   Partly Cloudy
6:53 AM 8.1 °F -12.6 °F 1.0 °F 73% 29.48 in 9.0 mi West 23.0 mph 28.8 mph N/A   Partly Cloudy
7:53 AM 7.0 °F -12.6 °F 1.0 °F 77% 29.51 in 10.0 mi West 19.6 mph 26.5 mph N/A   Clear
8:53 AM 7.0 °F -14.0 °F -0.0 °F 73% 29.53 in 7.0 mi West 23.0 mph 33.4 mph N/A   Partly Cloudy
9:15 AM 6.8 °F -13.8 °F 1.4 °F 79% 29.49 in 8.0 mi West 21.9 mph 29.9 mph N/A   Mostly Cloudy
9:35 AM 8.6 °F -9.5 °F 1.4 °F 73% 29.51 in 9.0 mi West 17.3 mph 26.5 mph N/A   Scattered Clouds
9:53 AM 8.1 °F -11.7 °F 1.0 °F 73% 29.56 in 8.0 mi West 20.7 mph 33.4 mph N/A   Partly Cloudy
10:53 AM 9.0 °F -9.5 °F 1.0 °F 70% 29.58 in 10.0 mi West 18.4 mph 27.6 mph N/A   Scattered Clouds
11:19 AM 8.6 °F -10.0 °F 1.4 °F 73% 29.54 in 9.0 mi West 18.4 mph 31.1 mph N/A   Mostly Cloudy
11:45 AM 10.4 °F -8.2 °F 1.4 °F 67% 29.54 in 10.0 mi West 19.6 mph 28.8 mph N/A   Scattered Clouds
11:53 AM 10.0 °F -8.1 °F 1.9 °F 70% 29.60 in 9.0 mi West 18.4 mph 31.1 mph N/A   Scattered Clouds
12:53 PM 12.0 °F -3.4 °F 3.9 °F 70% 29.60 in 10.0 mi West 13.8 mph 31.1 mph N/A   Clear
1:53 PM 14.0 °F -4.7 °F 5.0 °F 67% 29.63 in 9.0 mi West 23.0 mph 28.8 mph N/A   Clear
2:53 PM 15.1 °F -2.0 °F 7.0 °F 70% 29.65 in 10.0 mi West 19.6 mph 27.6 mph N/A   Clear
3:53 PM 16.0 °F 0.1 °F 8.1 °F 71% 29.68 in 9.0 mi West 17.3 mph 31.1 mph N/A   Clear
4:53 PM 17.1 °F 4.3 °F 8.1 °F 68% 29.70 in 10.0 mi West 11.5 mph 24.2 mph N/A   Clear
5:53 PM 16.0 °F 1.7 °F 7.0 °F 68% 29.73 in 10.0 mi West 13.8 mph 24.2 mph N/A   Clear
6:53 PM 16.0 °F 2.3 °F 8.1 °F 71% 29.76 in 10.0 mi West 12.7 mph 20.7 mph N/A   Clear
7:53 PM 16.0 °F 1.7 °F 8.1 °F 71% 29.77 in 10.0 mi West 13.8 mph 21.9 mph N/A   Clear
8:53 PM 15.1 °F 0.5 °F 7.0 °F 70% 29.79 in 10.0 mi West 13.8 mph 23.0 mph N/A   Clear
9:53 PM 15.1 °F -1.1 °F 6.1 °F 68% 29.80 in 10.0 mi West 17.3 mph 28.8 mph N/A   Clear
10:53 PM 12.9 °F -1.6 °F 5.0 °F 71% 29.81 in 10.0 mi West 12.7 mph - N/A   Clear
11:53 PM 12.0 °F -2.7 °F 5.0 °F 73% 29.83 in 10.0 mi WNW 12.7 mph 20.7 mph N/A   Clear